| time (UTC) | temp F | wind direction | speed MPH | gust MPH | rain 1hr in | rain 24hr in | rain mn in | humidity % | barometer mb |
| 20260504222010 | 59 | 360 | 0.0 | 2.0 | 0.00 | 0.00 | 0.00 | 66 | 1005.0 |
| 20260504221525 | 59 | 360 | 0.0 | 2.0 | 0.00 | 0.00 | 0.00 | 64 | 1005.0 |
| 20260504221012 | 59 | 360 | 0.0 | 2.0 | 0.00 | 0.00 | 0.00 | 61 | 1004.9 |
| 20260504220510 | 60 | 360 | 0.0 | 3.0 | 0.00 | 0.00 | 0.00 | 57 | 1004.9 |
| 20260504220014 | 60 | 360 | 0.0 | 3.0 | 0.00 | 0.00 | 0.00 | 58 | 1004.8 |
| 20260504215506 | 61 | 360 | 1.0 | 9.0 | 0.00 | 0.00 | 0.00 | 54 | 1004.8 |
| 20260504215009 | 61 | 360 | 2.0 | 10.0 | 0.00 | 0.00 | 0.00 | 54 | 1004.8 |
| 20260504214518 | 61 | 360 | 2.0 | 10.0 | 0.00 | 0.00 | 0.00 | 53 | 1004.8 |
| 20260504214009 | 61 | 360 | 2.0 | 5.0 | 0.00 | 0.00 | 0.00 | 54 | 1004.8 |
| 20260504213506 | 61 | 360 | 2.0 | 7.0 | 0.00 | 0.00 | 0.00 | 55 | 1004.7 |
| 20260504213023 | 61 | 360 | 2.0 | 12.0 | 0.00 | 0.00 | 0.00 | 54 | 1004.8 |
| 20260504212512 | 61 | 360 | 3.0 | 12.0 | 0.00 | 0.00 | 0.00 | 54 | 1004.7 |
| 20260504212011 | 61 | 360 | 2.0 | 8.0 | 0.00 | 0.00 | 0.00 | 54 | 1004.8 |
| 20260504211525 | 61 | 360 | 3.0 | 8.0 | 0.00 | 0.00 | 0.00 | 55 | 1004.8 |
| 20260504211010 | 61 | 360 | 3.0 | 8.0 | 0.00 | 0.00 | 0.00 | 54 | 1004.7 |
| 20260504210510 | 61 | 360 | 1.0 | 7.0 | 0.00 | 0.00 | 0.00 | 57 | 1004.5 |
| 20260504210028 | 60 | 360 | 1.0 | 5.0 | 0.00 | 0.00 | 0.00 | 55 | 1004.6 |
| 20260504205504 | 60 | 360 | 2.0 | 12.0 | 0.00 | 0.00 | 0.00 | 56 | 1004.5 |
| 20260504205002 | 60 | 120 | 3.0 | 12.0 | 0.00 | 0.00 | 0.00 | 55 | 1004.5 |
| 20260504204504 | 61 | 298 | 3.0 | 12.0 | 0.00 | 0.00 | 0.00 | 55 | 1004.4 |
| 20260504204002 | 60 | 292 | 4.0 | 12.0 | 0.00 | 0.00 | 0.00 | 55 | 1004.4 |
| 20260504203502 | 61 | 198 | 1.0 | 12.0 | 0.00 | 0.00 | 0.00 | 57 | 1004.4 |
| 20260504203006 | 60 | 338 | 3.0 | 11.0 | 0.00 | 0.00 | 0.00 | 56 | 1004.4 |
| 20260504202506 | 59 | 360 | 2.0 | 8.0 | 0.00 | 0.00 | 0.00 | 58 | 1004.5 |
| 20260504202007 | 59 | 360 | 1.0 | 5.0 | 0.00 | 0.00 | 0.00 | 61 | 1004.5 |
| 20260504201506 | 58 | 360 | 2.0 | 6.0 | 0.00 | 0.00 | 0.00 | 61 | 1004.5 |
| 20260504201004 | 58 | 360 | 1.0 | 6.0 | 0.00 | 0.00 | 0.00 | 60 | 1004.6 |
| 20260504200508 | 58 | 360 | 2.0 | 6.0 | 0.00 | 0.00 | 0.00 | 61 | 1004.5 |
| 20260504200010 | 58 | 360 | 1.0 | 6.0 | 0.00 | 0.00 | 0.00 | 63 | 1004.5 |
| 20260504195505 | 58 | 360 | 3.0 | 6.0 | 0.00 | 0.00 | 0.00 | 61 | 1004.4 |
| 20260504195006 | 58 | 360 | 0.0 | 9.0 | 0.00 | 0.00 | 0.00 | 63 | 1004.4 |
| 20260504194504 | 57 | 360 | 3.0 | 10.0 | 0.00 | 0.00 | 0.00 | 62 | 1004.4 |
| 20260504194003 | 57 | 360 | 2.0 | 10.0 | 0.00 | 0.00 | 0.00 | 63 | 1004.4 |
| 20260504193502 | 57 | 360 | 3.0 | 10.0 | 0.00 | 0.00 | 0.00 | 62 | 1004.3 |
| 20260504193004 | 57 | 360 | 2.0 | 11.0 | 0.00 | 0.00 | 0.00 | 62 | 1004.3 |
| 20260504192502 | 57 | 360 | 2.0 | 11.0 | 0.00 | 0.00 | 0.00 | 62 | 1004.4 |
| 20260504192003 | 58 | 360 | 4.0 | 9.0 | 0.00 | 0.00 | 0.00 | 61 | 1004.3 |
| 20260504191504 | 58 | 360 | 2.0 | 6.0 | 0.00 | 0.00 | 0.00 | 60 | 1004.4 |
| 20260504191003 | 58 | 360 | 1.0 | 12.0 | 0.00 | 0.00 | 0.00 | 60 | 1004.4 |
| 20260504190506 | 58 | 360 | 4.0 | 15.0 | 0.00 | 0.00 | 0.00 | 60 | 1004.3 |
| 20260504190007 | 59 | 360 | 3.0 | 15.0 | 0.00 | 0.00 | 0.00 | 58 | 1004.4 |
| 20260504185504 | 60 | 360 | 4.0 | 12.0 | 0.00 | 0.00 | 0.00 | 56 | 1004.3 |
| 20260504185004 | 61 | 360 | 5.0 | 11.0 | 0.00 | 0.00 | 0.00 | 56 | 1004.5 |
| 20260504184515 | 62 | 360 | 2.0 | 11.0 | 0.00 | 0.00 | 0.00 | 56 | 1004.4 |
| 20260504184006 | 61 | 360 | 4.0 | 11.0 | 0.00 | 0.00 | 0.00 | 57 | 1004.4 |
| 20260504183510 | 60 | 360 | 5.0 | 11.0 | 0.00 | 0.00 | 0.00 | 59 | 1004.4 |
| 20260504183003 | 58 | 15 | 4.0 | 13.0 | 0.00 | 0.00 | 0.00 | 61 | 1004.4 |
| 20260504182502 | 57 | 360 | 3.0 | 13.0 | 0.00 | 0.00 | 0.00 | 63 | 1004.5 |
| 20260504182003 | 57 | 360 | 2.0 | 11.0 | 0.00 | 0.00 | 0.00 | 64 | 1004.5 |
| 20260504181504 | 57 | 360 | 4.0 | 12.0 | 0.00 | 0.00 | 0.00 | 63 | 1004.5 |
| 20260504181004 | 56 | 360 | 5.0 | 12.0 | 0.00 | 0.00 | 0.00 | 64 | 1004.6 |
| 20260504180503 | 56 | 360 | 4.0 | 10.0 | 0.00 | 0.00 | 0.00 | 65 | 1004.6 |
| 20260504180010 | 55 | 360 | 2.0 | 11.0 | 0.00 | 0.00 | 0.00 | 68 | 1004.7 |
| 20260504175503 | 55 | 360 | 2.0 | 15.0 | 0.00 | 0.00 | 0.00 | 66 | 1004.7 |
| 20260504175005 | 55 | 360 | 2.0 | 15.0 | 0.00 | 0.00 | 0.00 | 67 | 1004.9 |
| 20260504174509 | 55 | 360 | 3.0 | 8.0 | 0.00 | 0.01 | 0.00 | 66 | 1004.8 |
| 20260504174005 | 55 | 360 | 2.0 | 6.0 | 0.00 | 0.01 | 0.00 | 68 | 1004.9 |
| 20260504173506 | 54 | 360 | 1.0 | 5.0 | 0.00 | 0.01 | 0.00 | 68 | 1004.9 |
| 20260504173014 | 54 | 360 | 0.0 | 6.0 | 0.00 | 0.01 | 0.00 | 69 | 1005.0 |
| 20260504172507 | 54 | 360 | 2.0 | 6.0 | 0.00 | 0.01 | 0.00 | 68 | 1005.0 |
| 20260504172009 | 54 | 360 | 1.0 | 6.0 | 0.00 | 0.01 | 0.00 | 69 | 1005.1 |
| 20260504171504 | 54 | 360 | 3.0 | 6.0 | 0.00 | 0.01 | 0.00 | 68 | 1005.1 |
| 20260504171003 | 53 | 360 | 1.0 | 5.0 | 0.00 | 0.01 | 0.00 | 68 | 1005.0 |
| 20260504170503 | 53 | 360 | 1.0 | 9.0 | 0.00 | 0.01 | 0.00 | 70 | 1005.0 |
| 20260504151007 | 54 | 360 | 3.0 | 9.0 | 0.00 | 0.07 | 0.00 | 55 | 1004.6 |
| 20260504150511 | 55 | 360 | 2.0 | 9.0 | 0.00 | 0.07 | 0.00 | 55 | 1004.8 |
| 20260504141008 | 53 | 360 | 2.0 | 12.0 | 0.00 | 0.12 | 0.00 | 57 | 1005.8 |
| 20260504140505 | 53 | 360 | 1.0 | 12.0 | 0.00 | 0.13 | 0.00 | 58 | 1005.8 |
| 20260504130504 | 51 | 360 | 1.0 | 9.0 | 0.00 | 0.17 | 0.00 | 57 | 1006.6 |
| 20260504110506 | 34 | 360 | 0.0 | 0.0 | 0.00 | 0.35 | 0.00 | 95 | 1006.8 |
| 20260504100503 | 29 | 360 | 0.0 | 0.0 | 0.00 | 0.39 | 0.00 | 94 | 1006.8 |
| 20260504082006 | 29 | 360 | 0.0 | 2.0 | 0.00 | 0.48 | 0.00 | 92 | 1006.3 |
| 20260504081522 | 29 | 360 | 0.0 | 2.0 | 0.00 | 0.49 | 0.00 | 92 | 1006.3 |
| 20260504081011 | 29 | 360 | 0.0 | 2.0 | 0.00 | 0.50 | 0.00 | 92 | 1006.3 |
| 20260504080511 | 29 | 360 | 0.0 | 2.0 | 0.00 | 0.50 | 0.00 | 92 | 1006.3 |
| 20260504050505 | 34 | 360 | 0.0 | 2.0 | 0.00 | 0.61 | 0.00 | 86 | 1005.8 |
| 20260504050020 | 34 | 360 | 0.0 | 2.0 | 0.00 | 0.61 | 0.00 | 86 | 1005.8 |
| 20260504045505 | 34 | 360 | 0.0 | 2.0 | 0.00 | 0.62 | 0.00 | 86 | 1005.8 |
| 20260504045008 | 35 | 360 | 0.0 | 2.0 | 0.00 | 0.62 | 0.00 | 85 | 1005.8 |
| 20260504044518 | 35 | 360 | 0.0 | 2.0 | 0.00 | 0.63 | 0.00 | 83 | 1005.8 |
| 20260504044003 | 35 | 360 | 0.0 | 2.0 | 0.00 | 0.63 | 0.00 | 82 | 1005.8 |
| 20260504043503 | 35 | 360 | 0.0 | 2.0 | 0.00 | 0.63 | 0.00 | 82 | 1005.8 |
| 20260504043004 | 36 | 360 | 0.0 | 2.0 | 0.00 | 0.63 | 0.00 | 82 | 1005.8 |
| 20260504042504 | 36 | 360 | 0.0 | 2.0 | 0.00 | 0.63 | 0.00 | 80 | 1005.8 |
| 20260504042003 | 36 | 360 | 0.0 | 2.0 | 0.00 | 0.63 | 0.00 | 78 | 1005.8 |
| 20260504041510 | 37 | 360 | 0.0 | 2.0 | 0.00 | 0.63 | 0.00 | 77 | 1005.7 |
| 20260504041003 | 37 | 360 | 0.0 | 8.0 | 0.00 | 0.64 | 0.00 | 75 | 1005.7 |
| 20260504040504 | 37 | 360 | 0.0 | 8.0 | 0.00 | 0.64 | 0.00 | 74 | 1005.6 |
| 20260504040017 | 37 | 360 | 0.0 | 3.0 | 0.00 | 0.64 | 0.00 | 77 | 1005.6 |
| 20260504035510 | 38 | 360 | 0.0 | 3.0 | 0.00 | 0.64 | 0.64 | 75 | 1005.5 |
| 20260504035009 | 38 | 360 | 1.0 | 4.0 | 0.00 | 0.64 | 0.64 | 76 | 1005.4 |
| 20260504034521 | 37 | 360 | 1.0 | 6.0 | 0.00 | 0.64 | 0.64 | 72 | 1005.4 |
| 20260504034011 | 37 | 360 | 1.0 | 6.0 | 0.00 | 0.64 | 0.64 | 76 | 1005.3 |
| 20260504033508 | 37 | 360 | 1.0 | 4.0 | 0.00 | 0.64 | 0.64 | 75 | 1005.2 |
| 20260504033020 | 37 | 360 | 0.0 | 4.0 | 0.00 | 0.64 | 0.64 | 76 | 1005.2 |
| 20260504032516 | 37 | 360 | 0.0 | 4.0 | 0.00 | 0.64 | 0.64 | 75 | 1005.2 |
| 20260504032006 | 37 | 360 | 0.0 | 8.0 | 0.00 | 0.65 | 0.64 | 77 | 1005.2 |
| 20260504031506 | 37 | 360 | 2.0 | 8.0 | 0.00 | 0.65 | 0.64 | 78 | 1005.1 |
| 20260504031008 | 37 | 360 | 0.0 | 4.0 | 0.00 | 0.65 | 0.64 | 77 | 1005.1 |
| 20260504030504 | 38 | 360 | 0.0 | 5.0 | 0.00 | 0.65 | 0.64 | 80 | 1005.1 |
| 20260504030011 | 38 | 360 | 0.0 | 5.0 | 0.00 | 0.65 | 0.64 | 77 | 1005.1 |
| 20260504025508 | 38 | 360 | 1.0 | 2.0 | 0.00 | 0.65 | 0.64 | 75 | 1005.1 |
| 20260504025006 | 39 | 360 | 1.0 | 4.0 | 0.00 | 0.65 | 0.64 | 74 | 1005.2 |
| 20260504024514 | 39 | 360 | 1.0 | 6.0 | 0.00 | 0.65 | 0.64 | 73 | 1005.1 |
| 20260504024007 | 39 | 360 | 1.0 | 6.0 | 0.00 | 0.65 | 0.64 | 71 | 1005.1 |
| 20260504023507 | 39 | 360 | 1.0 | 4.0 | 0.00 | 0.65 | 0.64 | 76 | 1005.1 |
| 20260504023020 | 38 | 360 | 2.0 | 9.0 | 0.00 | 0.65 | 0.64 | 73 | 1005.0 |
| 20260504022509 | 38 | 360 | 1.0 | 9.0 | 0.00 | 0.65 | 0.64 | 71 | 1005.0 |
| 20260504022007 | 38 | 360 | 1.0 | 3.0 | 0.00 | 0.65 | 0.64 | 77 | 1005.0 |
| 20260504021523 | 38 | 360 | 1.0 | 4.0 | 0.00 | 0.65 | 0.64 | 73 | 1005.0 |
| 20260504021009 | 38 | 360 | 1.0 | 4.0 | 0.00 | 0.65 | 0.64 | 72 | 1005.0 |
| 20260504020503 | 38 | 360 | 1.0 | 5.0 | 0.00 | 0.65 | 0.64 | 75 | 1004.9 |
| 20260504020008 | 38 | 360 | 1.0 | 5.0 | 0.00 | 0.65 | 0.64 | 77 | 1004.9 |
| 20260504015504 | 39 | 360 | 0.0 | 2.0 | 0.00 | 0.65 | 0.64 | 78 | 1004.9 |
| 20260504015006 | 39 | 360 | 1.0 | 3.0 | 0.00 | 0.65 | 0.64 | 73 | 1004.9 |
| 20260504014513 | 40 | 360 | 0.0 | 9.0 | 0.00 | 0.65 | 0.64 | 72 | 1004.8 |
| 20260504014004 | 40 | 360 | 3.0 | 9.0 | 0.00 | 0.65 | 0.64 | 66 | 1004.8 |
| 20260504013507 | 40 | 360 | 1.0 | 4.0 | 0.00 | 0.65 | 0.64 | 67 | 1004.8 |
| 20260504013024 | 41 | 360 | 1.0 | 8.0 | 0.00 | 0.65 | 0.64 | 69 | 1004.9 |
| 20260504012507 | 41 | 360 | 0.0 | 8.0 | 0.00 | 0.65 | 0.64 | 70 | 1004.8 |
| 20260504012008 | 42 | 360 | 2.0 | 8.0 | 0.00 | 0.65 | 0.64 | 65 | 1004.7 |
| 20260504011527 | 42 | 360 | 1.0 | 6.0 | 0.00 | 0.65 | 0.64 | 65 | 1004.6 |
| 20260504011009 | 42 | 360 | 1.0 | 9.0 | 0.00 | 0.65 | 0.64 | 60 | 1004.6 |
| 20260504010506 | 43 | 360 | 3.0 | 9.0 | 0.00 | 0.65 | 0.64 | 59 | 1004.5 |
| 20260504010023 | 43 | 360 | 2.0 | 6.0 | 0.00 | 0.66 | 0.64 | 60 | 1004.5 |
| 20260504005509 | 43 | 360 | 3.0 | 8.0 | 0.00 | 0.66 | 0.64 | 61 | 1004.4 |
| 20260504005003 | 43 | 360 | 4.0 | 8.0 | 0.00 | 0.66 | 0.64 | 59 | 1004.3 |
| 20260504004510 | 42 | 360 | 4.0 | 8.0 | 0.00 | 0.66 | 0.64 | 59 | 1004.2 |
| 20260504004003 | 42 | 360 | 2.0 | 6.0 | 0.00 | 0.66 | 0.64 | 59 | 1004.2 |
| 20260504003508 | 43 | 360 | 1.0 | 9.0 | 0.00 | 0.66 | 0.64 | 58 | 1004.1 |
| 20260504003012 | 43 | 360 | 3.0 | 9.0 | 0.00 | 0.66 | 0.64 | 58 | 1004.0 |
| 20260504002507 | 43 | 360 | 3.0 | 8.0 | 0.00 | 0.66 | 0.64 | 58 | 1003.9 |
| 20260504002010 | 43 | 360 | 3.0 | 9.0 | 0.00 | 0.66 | 0.64 | 60 | 1003.9 |
| 20260504001518 | 43 | 360 | 0.0 | 9.0 | 0.00 | 0.66 | 0.64 | 64 | 1003.9 |
| 20260504001010 | 43 | 360 | 3.0 | 10.0 | 0.00 | 0.67 | 0.64 | 64 | 1003.8 |
| 20260504000509 | 43 | 360 | 2.0 | 10.0 | 0.00 | 0.67 | 0.64 | 61 | 1003.8 |
| 20260504000049 | 43 | 360 | 1.0 | 4.0 | 0.00 | 0.67 | 0.64 | 63 | 1003.7 |
| 20260503235510 | 44 | 360 | 0.0 | 4.0 | 0.00 | 0.67 | 0.64 | 68 | 1003.6 |
| 20260503235010 | 45 | 360 | 1.0 | 10.0 | 0.00 | 0.67 | 0.64 | 61 | 1003.6 |
| 20260503234526 | 45 | 360 | 3.0 | 10.0 | 0.00 | 0.67 | 0.64 | 56 | 1003.5 |
| 20260503234010 | 46 | 360 | 2.0 | 10.0 | 0.00 | 0.68 | 0.64 | 58 | 1003.3 |
| 20260503233512 | 46 | 360 | 3.0 | 10.0 | 0.00 | 0.68 | 0.64 | 54 | 1003.2 |
| 20260503233011 | 47 | 360 | 3.0 | 14.0 | 0.00 | 0.68 | 0.64 | 52 | 1003.2 |
| 20260503232505 | 47 | 360 | 8.0 | 14.0 | 0.00 | 0.68 | 0.64 | 52 | 1003.2 |
| 20260503232006 | 47 | 360 | 2.0 | 12.0 | 0.00 | 0.68 | 0.64 | 53 | 1003.1 |
| 20260503231516 | 48 | 360 | 4.0 | 12.0 | 0.00 | 0.68 | 0.64 | 52 | 1003.1 |
| 20260503231006 | 48 | 360 | 6.0 | 12.0 | 0.00 | 0.68 | 0.64 | 51 | 1003.1 |
| 20260503230506 | 48 | 360 | 3.0 | 15.0 | 0.00 | 0.68 | 0.64 | 52 | 1003.0 |
| 20260503230020 | 48 | 360 | 4.0 | 18.0 | 0.00 | 0.68 | 0.64 | 52 | 1003.0 |
| 20260503225510 | 48 | 360 | 6.0 | 18.0 | 0.00 | 0.68 | 0.64 | 54 | 1002.9 |
| 20260503225010 | 48 | 360 | 5.0 | 16.0 | 0.00 | 0.68 | 0.64 | 52 | 1002.8 |
| 20260503224522 | 48 | 360 | 5.0 | 13.0 | 0.00 | 0.68 | 0.64 | 52 | 1002.6 |
| 20260503224009 | 48 | 360 | 6.0 | 14.0 | 0.00 | 0.68 | 0.64 | 51 | 1002.6 |
| 20260503223511 | 49 | 360 | 3.0 | 14.0 | 0.00 | 0.68 | 0.64 | 52 | 1002.6 |
| 20260503223035 | 49 | 360 | 4.0 | 13.0 | 0.00 | 0.68 | 0.64 | 54 | 1002.6 |
| 20260503222507 | 49 | 360 | 4.0 | 11.0 | 0.00 | 0.68 | 0.64 | 55 | 1002.4 |